Back to catalog

STARLINK-3943

AliveCommunicationsVLEO
NORAD 52557·PAYLOAD·🇺🇸 United States

Launched May 13, 2022 from Vandenberg Space Force Base

Loading…

Next Passes (next 24 hours)

TLE

FreshSource: CelesTrak SupGP

Epoch: Sep 14, 2026, 20:59 UTC

1 52557C 22051AA  26257.87479167 -.00028258  00000+0 -83521-3 0  2570
2 52557  53.1591 348.3734 0000968  78.6761 313.3911 15.34392987    13

Track STARLINK-3943 in real time with AllMySat

Download on the App Store